Weather History for KMQY - October, 2013

Change the Weather History Date:

Wednesday, October 2, 2013

  Actual Average Record
Temperature  
Mean Temperature 74 °F -  
Max Temperature 79 °F 73 °F 90 °F (2014)
Min Temperature 68 °F 53 °F 39 °F (2011)
Cooling Degree Days 8    
Growing Degree Days 24 (Base 50)    
Moisture  
Dew Point 68 °F    
Average Humidity 86    
Maximum Humidity 100    
Minimum Humidity 69    
Precipitation  
Precipitation 0.00 in - - ()
Sea Level Pressure  
Sea Level Pressure 30.13 in    
Wind  
Wind Speed 4 mph (SE)    
Max Wind Speed 8 mph    
Max Gust Speed -    
Visibility 10 miles    
Events Rain    
Averages and records for this station are not official NWS values.
T = Trace of Precipitation, MM = Missing Value Source: NWS Daily Summary

Daily Weather History Graph

Daily Weather History Graph

Search for Another Location

Airport or City:

Trip Planner

Search our weather history database for the weather conditions in past years. The results will help you decide how hot, cold, wet, or windy it might be!

Date:

Astronomy

Oct. 02, 2013 Rise Set
Actual Time 6:42 AM CDT 6:27 PM CDT
Civil Twilight 6:16 AM CDT 6:53 PM CDT
Nautical Twilight 5:46 AM CDT 7:23 PM CDT
Astronomical Twilight 5:16 AM CDT 7:52 PM CDT
Moon 4:18 AM CDT 5:00 PM CDT
Length of Visible Light 12h 36m
Length of Day
11h 45m
Waning Crescent, 6% of the Moon is Illuminated
Oct 2
Waning Crescent
Oct 4
New
Oct 11
First Quarter
Oct 18
Full
Oct 26
Last Quarter

Hourly Weather History & Observations

Time (CDT) Temp. Dew Point Humidity Pressure Visibility Wind Dir Wind Speed Gust Speed Precip Events Conditions
12:56 AM 70.0 °F 66.9 °F 90% 30.12 in 10.0 mi SSE 8.1 mph - N/A   Mostly Cloudy
1:56 AM 70.0 °F 66.9 °F 90% 30.12 in 10.0 mi SSE 4.6 mph - N/A   Mostly Cloudy
2:56 AM 70.0 °F 66.9 °F 90% 30.11 in 10.0 mi SE 4.6 mph - N/A   Mostly Cloudy
3:56 AM 68.9 °F 66.9 °F 93% 30.12 in 10.0 mi SE 4.6 mph - N/A   Overcast
4:56 AM 68.0 °F 66.9 °F 96% 30.12 in 10.0 mi SE 3.5 mph - N/A   Scattered Clouds
5:56 AM 68.0 °F 66.9 °F 96% 30.14 in 10.0 mi SE 3.5 mph - N/A   Partly Cloudy
6:56 AM 68.0 °F 66.9 °F 96% 30.16 in 10.0 mi SE 3.5 mph - N/A   Mostly Cloudy
7:56 AM 70.0 °F 66.9 °F 90% 30.18 in 10.0 mi SE 3.5 mph - N/A   Mostly Cloudy
8:56 AM 72.0 °F 66.9 °F 84% 30.19 in 10.0 mi Calm Calm - 0.00 in   Mostly Cloudy
9:56 AM 73.9 °F 66.9 °F 79% 30.19 in 10.0 mi Calm Calm - 0.00 in Rain Light Rain
10:56 AM 74.8 °F 66.9 °F 76% 30.18 in 10.0 mi Variable 4.6 mph - 0.00 in   Scattered Clouds
11:56 AM 73.9 °F 70.0 °F 87% 30.16 in 7.0 mi Calm Calm - 0.00 in   Mostly Cloudy
12:56 PM 75.9 °F 68.0 °F 76% 30.15 in 10.0 mi South 3.5 mph - N/A   Scattered Clouds
1:56 PM 77.0 °F 68.0 °F 74% 30.13 in 10.0 mi Calm Calm - N/A   Clear
2:56 PM 79.0 °F 68.0 °F 69% 30.11 in 10.0 mi Calm Calm - N/A   Partly Cloudy
3:56 PM 79.9 °F 68.9 °F 69% 30.10 in 10.0 mi NE 4.6 mph - N/A   Partly Cloudy
4:56 PM 79.0 °F 68.9 °F 71% 30.09 in 10.0 mi NNE 4.6 mph - N/A   Partly Cloudy
5:56 PM 77.9 °F 70.0 °F 76% 30.10 in 10.0 mi NNE 5.8 mph - N/A   Partly Cloudy
6:56 PM 74.8 °F 70.9 °F 87% 30.10 in 10.0 mi Calm Calm - N/A   Partly Cloudy
7:56 PM 72.9 °F 70.0 °F 91% 30.12 in 10.0 mi North 3.5 mph - N/A   Partly Cloudy
8:56 PM 72.0 °F 70.0 °F 93% 30.13 in 10.0 mi West 6.9 mph - N/A   Mostly Cloudy
9:56 PM 72.9 °F 70.0 °F 91% 30.13 in 10.0 mi Calm Calm - N/A   Mostly Cloudy
10:56 PM 70.9 °F 70.9 °F 100% 30.13 in 10.0 mi Calm Calm - N/A   Scattered Clouds
11:56 PM 72.0 °F 72.0 °F 100% 30.12 in 10.0 mi Calm Calm - 0.00 in   Scattered Clouds